#timestamp,LO_Frequency,Hit,StdDev 
1670767245.1,286047000.5,E
1670767255.0,286046999.9,N
1670767255.9,286046999.9,P
1670767275.8,286046998.1,P
1670767295.6,286046998.1,N
1670767315.4,286047000.7,N
1670767335.3,286046998.1,N
1670767355.1,286046998.6,N
1670767375.8,286046998.2,N
1670767395.7,286047000.0,N
1670767415.5,286047000.3,N
1670767435.4,286046998.3,N
1670767455.2,286046999.1,N
1670767475.0,286046998.8,N
1670767475.9,286046998.8,N
1670767495.8,286046999.3,N
1670767515.6,286046999.0,N
1670767535.5,286046998.4,N
1670767555.3,286046998.9,N
1670767575.1,286046999.1,N
1670767595.9,286046999.5,N
1670767615.7,286047001.1,N
1670767635.5,286047000.8,N
1670767655.4,286047000.7,N
1670767675.2,286047002.4,N
1670767695.1,286047002.5,N
1670767696.0,286047002.5,N
1670767715.8,286047002.0,N
1670767735.6,286047000.6,N
1670767755.5,286046999.9,N
1670767775.3,286046998.5,N
1670767795.2,286047000.3,N
1670767815.9,286046998.7,N
1670767835.7,286046998.5,N
1670767855.6,286046998.3,N
1670767875.4,286046999.3,N
1670767895.3,286046998.8,N
1670767915.1,286047001.2,N
1670767916.0,286047001.2,N
1670767935.8,286046998.1,N
1670767955.7,286047000.5,N
1670767975.5,286046998.5,N
1670767995.3,286046998.7,N
1670768015.2,286046998.2,N
1670768035.0,286047000.7,N
1670768035.9,286047000.7,N
1670768055.8,286047000.5,N
1670768075.6,286046998.5,N
1670768095.4,286046999.3,N
1670768115.3,286046999.5,N
1670768135.1,286046997.8,N
1670768155.9,286046996.7,N
1670768175.7,286046999.1,N
1670768195.5,286046999.3,N
1670768215.4,286046998.8,N
1670768235.2,286046998.1,N
1670768255.0,286047001.0,N
1670768256.0,286047001.0,N
1670768275.8,286047000.4,N
1670768295.6,286047000.4,N
1670768315.5,286047000.6,N
1670768335.3,286047001.2,N
1670768355.1,286047000.9,N
1670768375.9,286046998.5,N
1670768395.7,286047000.5,N
1670768415.6,286047000.4,N
1670768435.4,286047000.3,N
1670768455.3,286047000.3,N
1670768475.1,286047000.7,N
1670768476.0,286047000.7,N
1670768495.8,286046999.9,N
1670768515.7,286046999.8,N
1670768535.5,286047000.2,N
1670768555.3,286047001.0,N
1670768575.2,286047002.3,N
1670768595.0,286047002.0,N
1670768595.9,286047002.0,N
1670768615.8,286046999.8,N
1670768635.6,286047000.9,N
1670768655.4,286047000.7,N
1670768675.3,286047000.7,N
1670768695.1,286046999.8,N
1670768715.9,286047000.3,N
1670768735.7,286047000.5,N
1670768755.5,286047000.0,N
1670768775.4,286047001.1,N
1670768795.2,286047001.0,N
1670768815.0,286046998.9,N
1670768815.9,286046998.9,N
1670768835.8,286046996.8,Y
1670768855.6,286046998.7,P
1670768875.5,286046999.0,N
1670768895.3,286046998.7,N
1670768915.1,286046998.3,N
1670768935.9,286047001.2,N
1670768955.7,286046998.1,N
1670768975.5,286046998.9,N
1670768995.4,286046998.2,N
1670769015.2,286046999.2,N
1670769035.1,286047000.4,N
1670769036.0,286047000.4,N
1670769055.8,286047000.3,N
1670769075.6,286047002.8,N
1670769095.5,286046999.9,N
1670769115.3,286046998.3,N
1670769135.1,286046999.4,N
1670769155.9,286046996.6,N
1670769175.7,286046998.4,N
1670769195.6,286046998.8,N
1670769215.4,286046999.1,N
1670769235.2,286047001.1,N
1670769255.1,286047000.6,N
1670769256.0,286047000.6,N
1670769275.8,286047000.3,N
1670769295.6,286047000.4,N
1670769315.5,286047000.4,N
1670769335.3,286047002.7,N
1670769355.2,286046999.9,N
1670769375.0,286047001.0,N
1670769375.9,286047001.0,N
1670769395.7,286046999.7,N
1670769415.6,286047000.3,N
1670769435.4,286047000.4,N
1670769455.3,286047000.5,N
1670769475.1,286046999.8,N
1670769476.0,286046999.8,N
1670769495.8,286046998.7,N
1670769515.7,286047000.7,N
1670769535.5,286047000.5,N
1670769555.4,286047000.4,N
1670769575.2,286047000.1,N
1670769595.0,286047002.0,N
1670769595.9,286047002.0,N
1670769615.8,286047001.9,N
1670769635.6,286047002.3,N
1670769655.4,286047002.3,N
1670769675.3,286047002.0,N
1670769695.1,286046999.8,N
1670769715.9,286047001.8,N
1670769735.7,286047002.6,N
1670769755.6,286047002.3,N
1670769775.4,286047001.0,N
1670769795.2,286047000.3,N
1670769815.1,286047002.8,N
1670769816.0,286047002.8,N
1670769835.8,286047002.4,N
1670769855.6,286047002.2,N
1670769875.5,286046999.7,N
1670769895.3,286047000.1,N
1670769915.2,286047002.0,N
1670769935.9,286046999.8,N
1670769955.7,286046999.7,N
1670769975.6,286047000.9,N
1670769995.4,286047001.2,N
1670770015.2,286047000.6,N
1670770035.1,286046999.7,N
1670770036.0,286046999.7,N
1670770055.8,286046999.8,N
1670770075.7,286047001.9,N
1670770095.5,286047001.8,N
1670770115.3,286047004.3,Y
1670770135.2,286047001.6,P
1670770155.0,286047002.5,P
1670770155.9,286047002.5,P
1670770175.8,286047002.7,Y
1670770195.6,286046998.5,P
1670770215.4,286046998.7,N
1670770235.3,286046997.2,N
1670770255.1,286046994.9,N
1670770275.8,286046996.9,N
1670770295.7,286046996.7,N
1670770315.5,286046998.4,N
1670770335.4,286046998.3,N
1670770355.2,286046998.6,N
1670770375.0,286046998.1,N
1670770375.9,286046998.1,N
1670770395.8,286046998.6,N
1670770415.6,286046998.7,N
1670770435.5,286047001.2,N
1670770455.3,286046999.9,N
1670770475.1,286046999.8,N
1670770495.9,286047000.3,N
1670770515.7,286047000.1,N
1670770535.5,286047002.1,N
1670770555.4,286046999.8,N
1670770575.2,286046998.1,N
1670770595.1,286046999.1,N
1670770596.0,286046999.1,N
1670770615.8,286046998.9,N
1670770635.6,286046999.3,N
1670770655.5,286046999.3,N
1670770675.3,286047000.7,N
1670770695.2,286047001.1,N
1670770715.9,286047000.0,N
1670770735.7,286047000.7,N
1670770755.6,286047000.9,N
1670770775.4,286046998.3,N
1670770795.3,286046998.7,N
